Location: Unspecified
(0.0000°N, 0.0000°E)
Time: 07:59:52
(UTC+00:00)

deb r/b Ablestar - Pass Details

Date: 17 February 2026
Orbit: 902 x 2195 km, 67.6° (Epoch: 14 March)

Event Time Altitude Azimuth Distance (km) Brightness Sun altitude
Rises 18:29:47 0° 184° (S) 4,900 ? -3.9°
Reaches altitude 10° 18:33:30 10° 176° (S) 3,704 ? -4.8°
Maximum altitude 18:41:23 37° 113° (ESE) 1,865 ? -6.7°
Drops below altitude 10° 18:47:37 10° 47° (NE) 2,911 ? -8.2°
Enters shadow 18:49:40 - 40° (NE) 3,577 ? -8.7°
